Regional Weather Roundup
Issued by NWS Charleston, WV

Home | Current Version | Previous Version | Text Only | Print | Product List | Glossary Off
Versions: 1 2 3 4 5 6 7 8 9 10 11 12 13 14 15 16 17 18 19 20 21 22 23 24 25 26 27

000
ASUS41 KRLX 182110
RWRRLX
West Virginia Regional Weather Roundup
National Weather Service Charleston WV
400 PM EST THU JAN 18 2018

Note: "fair" indicates few or no clouds below 12,000 feet with no
significant weather and/or obstructions to visibility.

WVZ003-182200-
Northern Panhandle of West Virginia

CITY           SKY/WX    TMP DP  RH WIND       PRES   REMARKS
WHEELING         N/A     26   9  48 SW13G22   30.14S
$$

WVZ009-182200-
Northwest West Virginia

CITY           SKY/WX    TMP DP  RH WIND       PRES   REMARKS
PARKERSBURG      N/A     28  10  46 SW8G18    30.26F
$$

WVZ006-182200-
Western West Virginia

CITY           SKY/WX    TMP DP  RH WIND       PRES   REMARKS
HUNTINGTON       N/A     30  11  45 SW8       30.28F
$$

WVZ015-182200-
West Central West Virginia

CITY           SKY/WX    TMP DP  RH WIND       PRES   REMARKS
CHARLESTON       N/A     30  10  43 W10       30.26F
$$

WVZ022-031-182200-
North Central West Virginia

CITY           SKY/WX    TMP DP  RH WIND       PRES   REMARKS
CLARKSBURG       N/A     28  10  46 SW10      30.20S
MORGANTOWN       N/A     28   9  44 SW13G21   30.17S
$$

WVZ025-035-042-045-182200-
Southern West Virginia

CITY           SKY/WX    TMP DP  RH WIND       PRES   REMARKS
BECKLEY          N/A     27   7  42 W9        30.18F
LOGAN            N/A     28  10  47 S6        30.24F
BLUEFIELD        N/A     27   5  39 W14       30.18F
LEWISBURG        N/A     31  10  42 SW8       30.17F
$$

WVZ047-182200-
Northern Mountains of West Virginia

CITY           SKY/WX    TMP DP  RH WIND       PRES   REMARKS
ELKINS           N/A     31   5  33 SW6       30.14F
$$

WVZ052-182200-
Eastern Panhandle of West Virginia

CITY           SKY/WX    TMP DP  RH WIND       PRES   REMARKS
MARTINSBURG      N/A     42   2  18 NW13      30.02S
PETERSBURG       N/A     42   2  18 S14G25    30.06S
$$




USA.gov is the U.S. government's official web portal to all federal, state and local government web resources and services.